Starlink 32178

operational
NORAD ID: 60413 Int'l Des: 2024-141 Owner: SPXS Country: US Constellation: starlink
LEOCIRCULAR

Über Starlink 32178

Beschreibung wird geladen...

Live-Position

3D-Globus wird geladen...

Nächste Überflüge

Höhenverlauf

Altitude vs Time

uPlot chart will show altitude changes over time

Zweizeiliger Elementsatz

1 60413U 24141R 25352.13779544 -.00000651 00000-0 -98697-5 0 9991
2 60413 53.1602 261.4593 0001440 87.7816 272.3350 15.30189585 77033
Epoch: 18. Dez. 2025 • Age: 16 hours

Aktueller Status

Höhe 476.7 km
Geschwindigkeit 7.63 km/s
Subsatellitenpunkt -3.28°S, 116.13°W
Startdatum 10. Aug. 2024
Alter 1.3 years
Typ internet

Technische Details

Klassifizierung Payload
Masse 730.00 kg
Trockenmasse 700.00 kg
Gesamtmasse 730.00 kg
Länge 0.30 m
Durchmesser 4.10 m
Spannweite 29.00 m
Form Box + pan
Hersteller SPXS
Bus-Typ Starlink V2M
Phasenstatus In Orbit
Besitzer/Staat SPXS/US

Große Konstellationen

Loading constellations...